Back to catalog

EOS-6

AliveScienceSSO
NORAD 54361·PAYLOAD·🇮🇳 India

Launched Nov 26, 2022 from Satish Dhawan Space Centre

Loading…

Next Passes (next 24 hours)

TLE

FreshSource: Space-Track

Epoch: Sep 14, 2026, 15:23 UTC

1 54361U 22158A   26257.64166520  .00000166  00000-0  57640-4 0  9998
2 54361  98.3552 354.6511 0002317  89.2107 270.9351 14.46978317200771

Track EOS-6 in real time with AllMySat

Download on the App Store